www.pogodaiklimat.ru

Погода и климат >> Архив погоды >> Россия >> Приморский край >> Терней


ПОГОДА в Тернее

  • Прогноз погоды в Тернее
  • Монитор погоды в Тернее
  • Климат города

АРХИВ ПОГОДЫ в Тернее

Время (UTC), дата Ветер
(напр.,м/с)
 
Видим.   Явления Облачность Т
(С)
Тd
(С)
f
(%)
Тe
(С)
Тes
(С)
Комфортность P
(гПа)
Po
(гПа)
Тmin
(С)
Tmax
(С)
R
(мм)
R24
(мм)
S
(см)
03 10.12 СЗ 2 50 км 10/0
[As trans Cs]
-9.4 -19.2 45 -14 -12 1015.2 1007.1
06 10.12 штиль 0 10 км слабый снег 10/0
[As op]
-7.4 -13.2 63 -8 -8 1013.7 1005.7
09 10.12 СЗ 1 4000 м слабый ливневой снег 10/10 300 м
[Cb cap]
-9.1 -10.5 90 -11 -11 1013.8 1005.7 -7.2 1
12 10.12 СЗ 1 4000 м слабый ливневой снег 10/10 300 м
[Cb cap]
-8.8 -10.0 91 -11 -11 1012.1 1004.1
15 10.12 СЗ 1 4000 м слабый ливневой снег 10/10 300 м
[Cb cap]
-6.1 -7.2 92 -9 -9 1008.1 1000.2
18 10.12 СВ 3
{10}
1000 м ливневой снег 10/10 300 м
[Cb cap]
-4.5 -6.8 84 -10 -10 1002.1 994.2
21 10.12 С 2
{16}
500 м ливневой снег 10/10 300 м
[Cb cap]
-3.9 -4.6 95 -8 -8 998.4 990.7 -9.1 9 20
00 11.12 СЗ 3
{12}
500 м ливневой снег 10/10 300 м
[Cb cap]
-4.0 -4.6 96 -10 -10 994.4 986.6
03 11.12 З 7-11
{13}
4000 м слабый ливневой снег 10/10 300 м
[Cb cap]
-6.5 -7.3 94 -15 -15 990.9 983.1
06 11.12 З 11-18
{20}
1000 м ливневой снег {метель} 10/10 300 м
[Cb cap]
-11.1 -12.4 90 -22 -22 990.5 982.6
09 11.12 З 14-23
{25}
1000 м слабый ливневой снег {метель} 10/10 300 м
[Cb cap]
-13.9 -15.5 88 -27 -27 992.1 984.1 -3.9 22
12 11.12 З 13-23
{25}
4000 м метель {ливн. осадки} 10/10 600 м
[Sc]
-14.5 -16.1 88 -28 -28 993.4 985.3
15 11.12 З 8-16
{23}
20 км позёмок {метель} 10/10 600 м
[Sc]
-13.3 -14.9 88 -24 -24 995.4 987.4
18 11.12 З 7-12
{16}
20 км позёмок {метель} 10/10 600 м
[Sc]
-12.0 -14.8 80 -21 -21 995.8 987.7
21 11.12 З 9-17
{18}
20 км позёмок {метель} 6/0
[Ac trans Cs]
-12.3 -19.6 54 -23 -23 997.7 989.7 -14.6 2 39
00 12.12 З 10-18
{20}
50 км позёмок {метель} 10/0
[Ac und]
-12.5 -21.3 48 -24 -24 1000.5 992.4
03 12.12 З 11-21
{21}
50 км позёмок {метель} 4/3 600 м
[Sc Ac trans]
-10.8 -21.0 43 -22 -22 1000.9 992.9
06 12.12 З 10-17
{23}
50 км позёмок {метель} 9/8 600 м
[Sc Ac trans]
-11.3 -20.3 47 -22 -22 1002.9 994.9
09 12.12 СЗ 13-24
{24}
20 км позёмок {метель} 6/6 600 м
[Sc]
-12.1 -20.5 50 -24 -24 1004.1 996.1 -10.1
12 12.12 З 13-23
{29}
20 км сильный позёмок {метель} 8/8 600 м
[Sc]
-12.0 -20.4 50 -24 -24 1005.0 997.0
15 12.12 З 11-21
{28}
20 км сильный позёмок {метель} 10/10 600 м
[Sc]
-12.4 -21.2 48 -24 -24 1007.3 999.1
18 12.12 З 9-17
{25}
20 км позёмок {метель} 10/10 600 м
[Sc]
-12.5 -21.7 46 -23 -23 1008.4 1000.3
21 12.12 СЗ 9-16
{21}
20 км позёмок {метель} 4/4 600 м
[Sc]
-13.1 -22.0 47 -24 -24 1010.7 1002.6 -13.3 33
00 13.12 З 11-18
{20}
50 км позёмок {метель} 9/9 600 м
[Sc]
-13.3 -22.2 47 -25 -25 1013.3 1005.1 -14.2
03 13.12 З 12-20
{22}
50 км позёмок {метель} 10/10 600 м
[Sc]
-12.8 -22.3 45 -25 -25 1014.4 1006.2
06 13.12 З 9-17
{23}
4000 м слабый ливневой снег {метель} 10/10 600 м
[Cb cap]
-13.1 -18.6 63 -24 -24 1017.2 1009.0
09 13.12 З 9-15
{18}
4000 м слабый ливневой снег {метель} 10/10 600 м
[Cb cap]
-13.7 -19.7 60 -25 -25 1020.6 1012.3 -12.7 1
12 13.12 З 8-15
{16}
20 км позёмок {ливн. осадки, метель} 10/10 600 м
[Sc]
-13.5 -21.2 52 -24 -24 1022.6 1014.3
15 13.12 З 7-14
{16}
20 км позёмок {метель} 10/10 600 м
[Sc]
-13.3 -21.3 51 -23 -23 1024.3 1016.0
18 13.12 З 6-11
{14}
20 км позёмок {метель} 10/10 600 м
[Sc]
-13.2 -21.2 51 -22 -22 1025.7 1017.4
21 13.12 СЗ 7-16
{16}
20 км позёмок {метель} 1/1 600 м
[Sc]
-14.1 -21.5 53 -24 -24 1026.9 1018.6 -14.1 0.0 29
00 14.12 З 7-16
{16}
50 км позёмок {метель} 10/0
[Ac und]
-12.5 -20.2 53 -22 -22 1027.7 1019.5 -14.2
03 14.12 З 6-12
{15}
50 км {метель} 10/10 600 м
[Sc]
-9.0 -18.7 45 -17 -17 1026.1 1017.9
06 14.12 З 6-10
{12}
50 км {метель} 10/10 600 м
[Sc]
-8.5 -17.6 48 -16 -16 1025.3 1017.2
09 14.12 З 8-14
{17}
20 км 6/6 600 м
[Sc]
-10.2 -17.9 53 -20 -20 1025.3 1017.1 -8.0
12 14.12 СЗ 7-14
{14}
20 км ясно -11.1 -17.9 57 -20 -20 1024.3 1016.1
15 14.12 З 7-13
{15}
20 км ясно -12.4 -19.6 55 -22 -22 1023.4 1015.2
18 14.12 СЗ 7-13
{13}
20 км ясно -12.9 -21.3 49 -23 -23 1023.4 1015.1
21 14.12 СЗ 5-10
{15}
20 км 4/0
[Ac trans]
-12.5 -22.7 42 -21 -21 1022.7 1014.5 -13.3 28
00 15.12 СЗ 6
{12}
50 км 10/0
[Ac und]
-12.0 -22.1 43 -21 -21 1022.3 1014.1
03 15.12 СЗ 4
{13}
50 км 10/0
[Ac und]
-9.3 -21.6 36 -16 -15 1020.7 1012.6
06 15.12 СЗ 5 50 км 10/0
[Ac und]
-9.1 -21.6 35 -16 -16 1018.8 1010.7
09 15.12 З 6-10
{11}
20 км 10/0
[Ac As Cs]
-9.7 -19.2 46 -18 -18 1018.9 1010.8 -8.1
12 15.12 З 7-11
{11}
20 км 3/0
[Cs]
-11.4 -19.7 50 -21 -21 1018.1 1009.9
15 15.12 СЗ 2
{11}
20 км ясно -13.4 -20.0 58 -18 -18 1017.3 1009.1
18 15.12 СЗ 4 20 км ясно -13.4 -21.1 52 -21 -21 1015.5 1007.3
21 15.12 СЗ 6-10
{12}
20 км ясно -13.9 -22.2 49 -23 -23 1014.4 1006.2 -14.3 28
00 16.12 СЗ 6-11
{12}
50 км ясно -13.0 -22.7 44 -22 -22 1014.7 1006.5
03 16.12 З 7-13
{15}
50 км ясно -10.1 -22.7 35 -19 -18 1013.4 1005.3
06 16.12 З 7-12
{15}
50 км ясно -11.1 -23.0 37 -20 -20 1012.3 1004.2
09 16.12 З 7-13
{18}
20 км ясно -13.7 -23.8 42 -24 -24 1013.8 1005.6 -9.8
12 16.12 З 7-12
{17}
20 км ясно -15.3 -25.4 42 -26 -26 1015.1 1006.8
15 16.12 З 7-13
{14}
20 км ясно -16.5 -25.8 44 -27 -27 1016.0 1007.7
18 16.12 СЗ 8-15
{16}
20 км ясно -16.9 -25.5 47 -28 -28 1015.5 1007.2
21 16.12 СЗ 7-14
{17}
20 км ясно -16.3 -25.4 45 -27 -27 1015.7 1007.4 -17.1 28

 

Местоположение метеостанции Терней (Приморский край, Россия): широта 45.00 долгота 136.60 высота над уровнем моря 62 м.

В архиве по умолчанию представлена погода в Тернее за последнюю неделю. Архивные данные за месяц целиком и за предыдущие месяцы, начиная с января 2011 года, Вы можете получить, выбрав интересующий диапазон дат из раскрывающегося списка и нажав кнопку "Ввод!".

Внимание! Время в таблицах - всемирное. Для получения местного времени необходимо прибавить поправку, которая в Тернее равна 10 ч.

Смотрите также архив погоды в соседних городах и на ближайших метеорологических станциях:

Погода в Малой Кеме (Приморский край, Россия) (59 км)
Погода в Рудной Пристани (Приморский край, Россия) (94 км)
Погода в Мельничном (Приморский край, Россия) (100 км)
Погода в Богополе (Приморский край, Россия) (126 км)
Погода в Кавалерово (Приморский край, Россия) (152 км)
Погода в Глубинном (Приморский край, Россия) (156 км)
Погода в Ольге (Приморский край, Россия) (173 км)
Погода в Дальнегорске (Приморский край, Россия) (181 км)
Погода в Малиново (Приморский край, Россия) (194 км)
Погода в Красном Яре (Приморский край, Россия) (198 км)

Пояснения к столбцам:

Ветер - указаны скорость ветра в м/с - средняя за 10 мин, порывы в срок и между сроками (в фигурных скобках) и направление, откуда дует ветер: С - северный, СВ - северо-восточный, В - восточный, ЮВ - юго-восточный, Ю - южный, ЮЗ - юго-западный, З - западный, СЗ - северо-западный.
Видимость - горизонтальная дальность видимости в метрах или километрах. При видимости от 1 до 10 км при отсутствии осадков обычно наблюдается дымка, при ухудшении видимости до 1 км и менее - туман. В сухую погоду видимость может ухудшаться дымом, пылью или мглою.
Явления - указаны атмосферные явления, наблюдавшиеся в срок или в последний час перед сроком; фигурными скобками обозначены явления, наблюдавшиеся между сроками (за 1-3 часа до срока); квадратными скобками обозначены град или гололедные отложения с указанием их диаметра в мм.
Облачность - указаны через наклонную черту общая и нижняя облачность в баллах и высота нижней границы облаков в метрах; квадратными скобками обозначены формы облаков: Ci - перистые, Cs - перисто-слоистые, Cc - перисто-кучевые, Ac - высококучевые, As - высокослоистые, Sc - слоисто-кучевые, Ns - слоисто-дождевые, Cu - кучевые, Cb - кучево-дождевые. Подробнее классификацию облаков см. в Атласе облаков (PDF).
T - Температура воздуха - температура, измеренная на высоте 2 м над землей.
Td - Температура точки росы - температура, при понижении до которой содержащийся в воздухе водяной пар достигнет насыщения.
f - Относительная влажность воздуха - влажноcть воздуха, измеренная на высоте 2 м над землей.
Te - Эффективная температура - температура, которую ощущает одетый по сезону человек в тени. Характеристика душности погоды. При расчете учитывается влияние влажности воздуха и скорости ветра на теплоощущения человека.
Tes - Эффективная температура на солнце - температура, которую ощущает человек, с поправкой на солнечный нагрев. Характеристика знойности погоды. Зависит от высоты солнца над горизонтом, облачности и скорости ветра. Ночью, в пасмурную погоду, а также при ветре 12 м/с и более поправка равна нулю.
P - Атмосферное давление - приведенное к уровню моря атмосферное давление.
Po - Атмосферное давление - измеренное на уровне метеостанции атмосферное давление.
Tmin - Минимальная температура - минимум температуры воздуха на высоте 2 м над землей.
Tmax - Максимальная температура - максимум температуры воздуха на высоте 2 м над землей.
R - Количество осадков - Количество выпавших осадков за период времени, мм. При наведении курсора мыши на число - период времени, за который выпало указанное количество осадков.
R24 - Количество осадков - Количество выпавших осадков за 24 часа, мм.
S - Снежный покров - Высота снежного покрова, см. При наведении курсора мыши на число - состояние снежного покрова и степень покрытия местности в баллах.